Location: Peterson
(33.2326°N, 87.4236°W)
Time: 14:27:47
(UTC+00:00)

ACS3 Solar Sail - Visible Passes

Search period start: 22 April 2026 00:00
Search period end: 02 May 2026 00:00
Orbit: 874 x 973 km, 97.2° (Epoch: 22 April)

Date Brightness Start Highest point End Pass type
(mag) Time Alt. Az. Time Alt. Az. Time Alt. Az.
22 Apr 3.8 06:27:11 10° NNE 06:29:14 22° NNE 06:29:14 22° NNE visible
22 Apr 3.7 08:10:40 10° NNW 08:12:47 17° NW 08:12:47 17° NW visible
23 Apr 3.6 06:36:37 10° NNE 06:38:59 25° NNE 06:38:59 25° NNE visible
23 Apr 3.8 08:20:43 10° NNW 08:22:32 15° NW 08:22:32 15° NW visible
24 Apr 3.5 06:46:03 10° NNE 06:48:43 28° NNE 06:48:43 28° NNE visible
24 Apr 3.9 08:30:59 10° NW 08:32:16 12° NW 08:32:16 12° NW visible
25 Apr 3.3 06:55:34 10° N 06:58:26 30° N 06:58:26 30° N visible
25 Apr 4.0 08:41:55 10° NW 08:41:58 10° NW 08:41:58 10° NW visible
26 Apr 3.2 07:05:04 10° N 07:08:07 31° N 07:08:07 31° N visible
27 Apr 4.3 05:33:59 10° NE 05:34:15 11° NE 05:34:15 11° NE visible
27 Apr 3.2 07:14:37 10° N 07:17:48 31° NNW 07:17:48 31° NNW visible
28 Apr 4.2 05:42:52 10° NE 05:43:54 14° NE 05:43:54 14° NE visible
28 Apr 3.2 07:24:11 10° N 07:27:27 30° NNW 07:27:27 30° NNW visible
29 Apr 4.0 05:51:54 10° NE 05:53:33 17° NE 05:53:33 17° NE visible
29 Apr 3.2 07:33:49 10° N 07:37:06 28° NNW 07:37:06 28° NNW visible
30 Apr 3.8 06:01:02 10° NNE 06:03:11 20° NE 06:03:11 20° NE visible
30 Apr 3.3 07:43:28 10° NNW 07:46:43 25° NW 07:46:43 25° NW visible
1 May 3.6 06:10:13 10° NNE 06:12:47 24° NE 06:12:47 24° NE visible
1 May 3.4 07:53:10 10° NNW 07:56:19 22° NW 07:56:19 22° NW visible
